[[{"header":{"parameterUnit":"m.s-1","parameterCategory":1,"la1":30.2991,"la2":30.254,"lo1":-89.0895,"lo2":-89.0444,"dy":0.0017,"dx":0.0017,"nx":28,"ny":28,"refTime":"2025-11-25T03:00:00:Z","depth":0,"parameterNumber":2,"parameterNumberName":"U-component_of_WINDS"},"data":[0,0,0,0,0,0,0,0,0,0,0,0,0,0,0,0,0,0,0,0,0,0,0,0,0,0,0,0,0,0,0,0,0,0,0,0,0,0,0,0,0,0,0,0,0,0,0,0,0,0,0,0,0,0,0,0,0,0,1.938,1.938,0,1.9393,1.9393,1.9393,1.939,1.939,1.9389,1.9389,1.9402,1.9402,1.9403,0,0,0,0,0,0,0,0,0,0,0,0,0,1.9353,1.9353,1.938,1.938,1.938,1.9393,1.9393,1.9393,1.939,1.9389,1.9389,1.9389,1.9402,1.9402,1.9403,0,0,0,0,0,0,0,0,0,0,0,0,0,1.9365,1.9354,1.938,1.938,1.938,1.9393,1.9393,1.9393,1.939,1.9389,1.9389,1.9389,1.9401,1.9402,1.9403,1.9416,0,0,1.9406,1.9406,0,0,0,0,0,0,0,0,1.9364,1.9366,1.938,1.938,1.938,1.9389,1.9388,1.9401,1.939,1.9386,1.9389,1.9389,1.9398,1.9399,1.9402,1.9416,1.9417,1.9406,1.9406,1.9407,1.9407,0,0,0,0,0,0,0,1.9364,1.9365,1.9385,1.938,1.938,1.938,1.9381,1.939,1.9394,1.9386,1.9386,1.9388,1.9398,1.9401,1.9402,1.9417,1.9406,1.9406,1.9407,1.9407,1.9444,1.9444,0,0,0,0,0,0,1.9363,1.9365,1.9384,1.9385,1.9371,1.9381,1.9382,1.9387,1.9394,1.9395,1.9388,1.9388,1.94,1.9401,1.9403,1.9419,1.9407,1.9407,1.9408,1.9444,1.9444,1.9445,0,0,0,0,0,0,1.9362,1.9364,1.9384,1.9375,1.9377,1.9381,1.9387,1.9387,1.9391,1.9395,1.9396,1.9391,1.94,1.9402,1.9413,1.9419,1.9408,1.9409,1.9443,1.9444,1.9444,1.9451,0,0,0,0,0,0,1.9361,1.9364,1.9369,1.9375,1.9378,1.9393,1.9387,1.9388,1.9392,1.9392,1.9398,1.9399,1.94,1.9412,1.9414,1.942,1.9409,1.9442,1.9443,1.9444,1.945,1.9452,1.9453,0,0,0,0,0,1.936,1.9369,1.9369,1.9371,1.9384,1.9394,1.9395,1.9396,1.9393,1.9397,1.9401,1.9398,1.9419,1.9413,1.9415,1.9422,1.9442,1.9443,1.9444,1.9449,1.9451,1.9453,0,0,0,0,0,0,1.9363,1.937,1.937,1.9381,1.9387,1.9393,1.9399,1.9398,1.9405,1.9404,1.9405,1.9407,1.9419,1.9422,1.9415,1.9436,1.943,1.9431,1.9433,1.9435,1.9436,1.9435,1.941,0,0,0,0,0,1.9365,1.9373,1.9379,1.9388,1.9391,1.9395,1.9399,1.94,1.9406,1.9408,1.9412,1.9418,1.9426,1.9431,1.9438,1.9451,1.9453,1.9457,1.9459,1.946,1.9461,1.9469,1.9471,1.9448,1.9448,1.9448,0,0,1.9369,1.9374,1.9378,1.9389,1.9393,1.9402,1.9397,1.9405,1.9411,1.9409,1.942,1.9424,1.943,1.9443,1.9449,1.9446,1.9468,1.9461,1.9462,1.9462,1.947,1.9472,1.9474,1.9449,1.9449,1.9449,0,0,1.938,1.9385,1.9394,1.9399,1.9406,1.9409,1.9411,1.9418,1.942,1.9432,1.9431,1.9438,1.9451,1.9457,1.9461,1.9477,1.9475,1.9479,1.9487,1.9495,1.9496,1.9498,1.9504,1.9506,1.948,1.948,1.948,0,1.9384,1.9396,1.9398,1.9407,1.9412,1.9412,1.9422,1.9426,1.9436,1.9439,1.9436,1.9454,1.9458,1.9472,1.9476,1.948,1.9483,1.9478,1.9496,1.9498,1.9499,1.9505,1.9507,1.9481,1.9481,1.9481,1.9481,0,1.9401,1.941,1.9416,1.9426,1.9432,1.9441,1.9445,1.9451,1.9452,1.9455,1.9467,1.9473,1.9482,1.9485,1.9486,1.95,1.9498,1.9496,1.949,1.9502,1.9507,1.9509,1.9482,1.9481,1.9481,1.9481,0,0,1.9413,1.9425,1.9427,1.9432,1.9441,1.9448,1.9458,1.9467,1.9472,1.9479,1.9488,1.95,1.9498,1.9503,1.9505,1.9512,1.9525,1.9508,1.9509,1.9511,1.9542,1.9543,1.9546,1.9524,1.9525,1.9525,1.9541,0,1.9425,1.9442,1.9445,1.946,1.9469,1.947,1.9478,1.9485,1.9489,1.9497,1.9501,1.951,1.9507,1.951,1.9517,1.9522,1.9531,1.9521,1.9532,1.9533,1.953,1.9548,1.955,1.9564,1.9543,1.9544,1.9544,0,1.9441,1.9449,1.9465,1.9475,1.9478,1.9486,1.9495,1.9503,1.9511,1.9514,1.952,1.9521,1.9532,1.9527,1.9542,1.9535,1.9541,1.9544,1.9545,1.9545,1.9538,1.9549,1.9569,1.9571,1.9547,1.9547,1.9547,0,1.9448,1.9463,1.9475,1.9479,1.949,1.9496,1.9501,1.9509,1.9515,1.9523,1.9527,1.9537,1.9542,1.955,1.9554,1.955,1.9569,1.9564,1.9572,1.9572,1.9575,1.9575,1.9596,1.9579,1.9579,1.9579,1.9579,0,1.9461,1.9471,1.9479,1.9486,1.9497,1.9501,1.9513,1.9518,1.9525,1.9534,1.9535,1.9543,1.9548,1.9557,1.9561,1.9573,1.9576,1.9578,1.9579,1.9578,1.9577,1.958,1.9579,1.958,1.958,1.958,1.958,0,1.947,1.9476,1.9489,1.9499,1.9502,1.951,1.9518,1.9526,1.9531,1.9541,1.9544,1.9552,1.9562,1.9568,1.9581,1.9583,1.9598,1.9598,1.9595,1.9595,1.9602,1.9602,1.9626,1.9629,1.9611,1.9611,1.9611,0,1.9478,1.9485,1.9497,1.9503,1.9508,1.9518,1.9524,1.9529,1.9536,1.9547,1.9553,1.9564,1.9573,1.9591,1.9598,1.9608,1.9608,1.9616,1.961,1.9609,1.9608,1.9608,1.9609,1.9617,1.9617,1.9617,1.9617,0,1.9491,1.9493,1.9503,1.9513,1.9521,1.953,1.9538,1.9543,1.955,1.9557,1.9569,1.9576,1.959,1.9602,1.9613,1.9618,1.9619,1.962,1.9622,1.9621,1.9619,1.962,1.9597,1.9619,1.9619,1.9619,1.9618,1.9618,1.9499,1.9506,1.9516,1.9527,1.9534,1.9542,1.955,1.9556,1.9566,1.9578,1.9581,1.9593,1.9603,1.9618,1.9624,1.9634,1.9632,1.9636,1.9637,1.9637,1.9638,1.9618,1.9636,1.9636,1.9636,1.9636,1.9636,0,1.9512,1.9519,1.9529,1.9541,1.9549,1.955,1.956,1.9567,1.9578,1.9587,1.9597,1.9611,1.9622,1.963,1.9642,1.9649,1.9649,1.9652,1.9651,1.9652,1.9639,1.9635,1.9651,1.9651,1.9651,1.9651,1.9651,1.9651,1.952,1.9532,1.9537,1.9553,1.956,1.9572,1.9578,1.9586,1.9593,1.9609,1.9619,1.9624,1.9633,1.9646,1.9657,1.9659,1.9663,1.9665,1.9668,1.9654,1.9653,1.9651,1.9648,1.9666,1.9666,1.968,1.968,1.968]},{"header":{"parameterUnit":"m.s-1","parameterCategory":1,"la1":30.2991,"la2":30.254,"lo1":-89.0895,"lo2":-89.0444,"dy":0.0017,"dx":0.0017,"nx":28,"ny":28,"refTime":"2025-11-25T03:00:00:Z","depth":0,"parameterNumber":3,"parameterNumberName":"V-component_of_WINDS"},"data":[0,0,0,0,0,0,0,0,0,0,0,0,0,0,0,0,0,0,0,0,0,0,0,0,0,0,0,0,0,0,0,0,0,0,0,0,0,0,0,0,0,0,0,0,0,0,0,0,0,0,0,0,0,0,0,0,0,0,-6.7028,-6.7029,0,-6.7116,-6.7117,-6.7118,-6.7101,-6.7099,-6.7098,-6.7096,-6.718,-6.7184,-6.7188,0,0,0,0,0,0,0,0,0,0,0,0,0,-6.684,-6.6843,-6.7028,-6.7029,-6.703,-6.7116,-6.7117,-6.7119,-6.7101,-6.7099,-6.7097,-6.7096,-6.7179,-6.7183,-6.7188,0,0,0,0,0,0,0,0,0,0,0,0,0,-6.6924,-6.6844,-6.7028,-6.7032,-6.7033,-6.7116,-6.7118,-6.7119,-6.7102,-6.7099,-6.7097,-6.7095,-6.7178,-6.7183,-6.7189,-6.7271,0,0,-6.7206,-6.7208,0,0,0,0,0,0,0,0,-6.6919,-6.6931,-6.703,-6.7032,-6.7033,-6.7095,-6.7082,-6.717,-6.7102,-6.7076,-6.7096,-6.7094,-6.7154,-6.7161,-6.7183,-6.7274,-6.7278,-6.7206,-6.7209,-6.7212,-6.7213,0,0,0,0,0,0,0,-6.6913,-6.6927,-6.7063,-6.7032,-6.7034,-6.7028,-6.7037,-6.7098,-6.7126,-6.7078,-6.7077,-6.7088,-6.7154,-6.7177,-6.7184,-6.7279,-6.7206,-6.7211,-6.7214,-6.7216,-6.7445,-6.7448,0,0,0,0,0,0,-6.6907,-6.6922,-6.706,-6.7065,-6.697,-6.7033,-6.7044,-6.7078,-6.7126,-6.7131,-6.709,-6.7087,-6.7169,-6.7178,-6.7187,-6.7288,-6.7212,-6.7217,-6.722,-6.7442,-6.7446,-6.7449,0,0,0,0,0,0,-6.6903,-6.6919,-6.7056,-6.6994,-6.7011,-6.7039,-6.7077,-6.7081,-6.7104,-6.7135,-6.7139,-6.7109,-6.7167,-6.7179,-6.7251,-6.729,-6.722,-6.7225,-6.7439,-6.7443,-6.7447,-6.7489,0,0,0,0,0,0,-6.6897,-6.6918,-6.695,-6.6995,-6.7014,-6.712,-6.708,-6.7084,-6.7115,-6.7111,-6.7154,-6.7159,-6.7166,-6.7243,-6.7257,-6.7297,-6.7229,-6.7436,-6.7441,-6.7446,-6.7484,-6.7494,-6.7502,0,0,0,0,0,-6.6891,-6.6956,-6.6952,-6.6969,-6.7055,-6.7122,-6.7133,-6.7143,-6.7118,-6.715,-6.717,-6.7157,-6.7284,-6.725,-6.7266,-6.7308,-6.7433,-6.744,-6.7446,-6.748,-6.7492,-6.7502,0,0,0,0,0,0,-6.6912,-6.6962,-6.6958,-6.704,-6.7078,-6.7119,-6.716,-6.7155,-6.7198,-6.7193,-6.7201,-6.7211,-6.7284,-6.7303,-6.7264,-6.7391,-6.7355,-6.7364,-6.7376,-6.7388,-6.7397,-6.739,-6.7234,0,0,0,0,0,-6.6927,-6.698,-6.7019,-6.7088,-6.7107,-6.7131,-6.716,-6.7165,-6.7203,-6.7218,-6.7243,-6.7279,-6.7327,-6.7358,-6.7404,-6.7487,-6.7496,-6.7524,-6.7533,-6.7541,-6.7548,-6.7595,-6.7608,-6.7469,-6.7469,-6.7469,0,0,-6.6957,-6.6991,-6.7023,-6.7093,-6.7123,-6.7175,-6.7144,-6.72,-6.7239,-6.7225,-6.7296,-6.7316,-6.7356,-6.7435,-6.747,-6.7453,-6.7589,-6.7548,-6.7554,-6.7558,-6.7603,-6.7616,-6.7628,-6.7473,-6.7472,-6.7472,0,0,-6.704,-6.707,-6.7132,-6.7163,-6.721,-6.7226,-6.7241,-6.7284,-6.7298,-6.7369,-6.7361,-6.7407,-6.7489,-6.7519,-6.7545,-6.7643,-6.7633,-6.7657,-6.7704,-6.775,-6.7761,-6.7771,-6.7806,-6.7819,-6.7665,-6.7665,-6.7665,0,-6.707,-6.7151,-6.7163,-6.7222,-6.7254,-6.7248,-6.731,-6.7339,-6.7397,-6.7418,-6.7398,-6.7504,-6.7531,-6.7617,-6.7641,-6.7662,-6.7679,-6.7652,-6.7759,-6.7769,-6.7778,-6.7812,-6.7825,-6.7668,-6.7668,-6.7667,-6.7667,0,-6.7188,-6.7244,-6.7288,-6.7348,-6.7384,-6.7444,-6.7465,-6.75,-6.7502,-6.752,-6.7593,-6.7626,-6.7679,-6.77,-6.7701,-6.7787,-6.7775,-6.7757,-6.7721,-6.7794,-6.7826,-6.7839,-6.7672,-6.7671,-6.767,-6.7669,0,0,-6.7283,-6.7353,-6.7368,-6.7397,-6.7449,-6.7492,-6.7552,-6.7607,-6.7638,-6.7678,-6.7729,-6.7801,-6.7786,-6.7815,-6.782,-6.786,-6.7937,-6.7838,-6.7839,-6.7856,-6.8035,-6.8048,-6.8063,-6.7931,-6.7934,-6.7936,-6.8032,0,-6.7371,-6.7479,-6.7494,-6.7589,-6.7642,-6.7638,-6.7691,-6.7728,-6.7747,-6.7793,-6.7813,-6.7864,-6.784,-6.7858,-6.7898,-6.7919,-6.7973,-6.7913,-6.7977,-6.7979,-6.7967,-6.8079,-6.8093,-6.8182,-6.8044,-6.8046,-6.8048,0,-6.7486,-6.7535,-6.7637,-6.7685,-6.7707,-6.7755,-6.7808,-6.7852,-6.7895,-6.7906,-6.7941,-6.7941,-6.8003,-6.7965,-6.805,-6.8009,-6.8036,-6.8051,-6.8055,-6.806,-6.8018,-6.8088,-6.821,-6.8223,-6.8067,-6.8066,-6.8064,0,-6.7547,-6.7637,-6.7711,-6.7735,-6.7792,-6.7826,-6.7851,-6.7892,-6.7925,-6.797,-6.7992,-6.8043,-6.8071,-6.8111,-6.8125,-6.8096,-6.8209,-6.8172,-6.8219,-6.8219,-6.8242,-6.8241,-6.837,-6.826,-6.826,-6.826,-6.826,0,-6.7643,-6.7706,-6.7739,-6.7784,-6.7855,-6.787,-6.7939,-6.7962,-6.7999,-6.8048,-6.8047,-6.8092,-6.8109,-6.8157,-6.8168,-6.8237,-6.8249,-6.8259,-6.8261,-6.8259,-6.8258,-6.8277,-6.8271,-6.8263,-6.8263,-6.8262,-6.8261,0,-6.7722,-6.7747,-6.7827,-6.7877,-6.7891,-6.7941,-6.7982,-6.8025,-6.8045,-6.8107,-6.8122,-6.8152,-6.8209,-6.8228,-6.8295,-6.8303,-6.8383,-6.838,-6.837,-6.837,-6.8416,-6.8412,-6.8562,-6.8583,-6.8459,-6.8461,-6.8462,0,-6.7782,-6.7831,-6.7887,-6.7921,-6.7949,-6.8003,-6.8038,-6.8056,-6.8092,-6.8147,-6.8183,-6.824,-6.8287,-6.8378,-6.8404,-6.8456,-6.8454,-6.8503,-6.8462,-6.8459,-6.8455,-6.8453,-6.8458,-6.8511,-6.8512,-6.8513,-6.8514,0,-6.7885,-6.7896,-6.7948,-6.8006,-6.8048,-6.8093,-6.8137,-6.8164,-6.8188,-6.8229,-6.8289,-6.8325,-6.8397,-6.8453,-6.8507,-6.8531,-6.8527,-6.8527,-6.8541,-6.8539,-6.8532,-6.8537,-6.8391,-6.8523,-6.8522,-6.8522,-6.8521,-6.8521,-6.7957,-6.8001,-6.8049,-6.8107,-6.8143,-6.8184,-6.8228,-6.8255,-6.8306,-6.8368,-6.8374,-6.8439,-6.8482,-6.8555,-6.8582,-6.8632,-6.8617,-6.8637,-6.8642,-6.8647,-6.8651,-6.8525,-6.8641,-6.8641,-6.8641,-6.864,-6.864,0,-6.8061,-6.8093,-6.8146,-6.8209,-6.8256,-6.8251,-6.8299,-6.8338,-6.8396,-6.8437,-6.8485,-6.8554,-6.861,-6.8642,-6.8698,-6.8732,-6.8731,-6.8746,-6.8743,-6.8749,-6.866,-6.8643,-6.8745,-6.8745,-6.8745,-6.8745,-6.8745,-6.8745,-6.8121,-6.8196,-6.8213,-6.8306,-6.8336,-6.8402,-6.8431,-6.8469,-6.8503,-6.8581,-6.8629,-6.8651,-6.8689,-6.8748,-6.8799,-6.8807,-6.8827,-6.8844,-6.885,-6.8766,-6.8755,-6.8745,-6.8729,-6.8848,-6.8848,-6.8935,-6.8936,-6.8937]}]]